• In France
  • List of Countries
  • For 7 days
  • Water Temperature
  • Satellite Maps
  • Weather Map
  • Weather Widgets
  • user-avatar
    Login

    Hourly Weather Nikoncy

    Today, 24 September, Monday

    Time Temperature Precipitation Wind Pressure Humidity
    00:00 +7°C° 0 mm 3 mps 741 mmHg 92%
    01:00 +7°C° 0 mm 2 mps 740 mmHg 94%
    02:00 +7°C° 0 mm 1 mps 740 mmHg 97%
    03:00 +7°C° 0.1 mm 2 mps 739 mmHg 97%
    04:00 +7°C° 0.1 mm 2 mps 739 mmHg 96%
    05:00 +7°C° 0.1 mm 2 mps 739 mmHg 95%
    06:00 +7°C° 1 mm 3 mps 738 mmHg 95%
    07:00 +8°C° 1 mm 3 mps 738 mmHg 95%
    08:00 +8°C° 1 mm 3 mps 737 mmHg 95%
    09:00 +7°C° 2.4 mm 4 mps 736 mmHg 95%
    10:00 +7°C° 2.4 mm 4 mps 735 mmHg 95%
    11:00 +7°C° 2.4 mm 4 mps 734 mmHg 94%
    12:00 +7°C° 2.7 mm 4 mps 733 mmHg 95%
    13:00 +7°C° 2.7 mm 4 mps 732 mmHg 95%
    14:00 +7°C° 2.7 mm 4 mps 731 mmHg 95%
    15:00 +7°C° 2.3 mm 4 mps 731 mmHg 95%
    16:00 +7°C° 2.3 mm 5 mps 731 mmHg 95%
    17:00 +5°C° 2.3 mm 6 mps 730 mmHg 95%
    18:00 +5°C° 0.7 mm 6 mps 731 mmHg 94%
    19:00 +5°C° 0.7 mm 6 mps 732 mmHg 93%
    20:00 +5°C° 0.7 mm 7 mps 732 mmHg 92%
    21:00 +5°C° 0.3 mm 6 mps 733 mmHg 92%
    22:00 +5°C° 0.3 mm 6 mps 734 mmHg 92%
    23:00 +5°C° 0.3 mm 6 mps 734 mmHg 91%

    Tomorrow, 25 September, Tuesday

    Time Temperature Precipitation Wind Pressure Humidity
    00:00 +5°C° 0.2 mm 6 mps 735 mmHg 91%
    01:00 +5°C° 0.2 mm 6 mps 736 mmHg 90%
    02:00 +5°C° 0.2 mm 6 mps 737 mmHg 89%
    03:00 +4°C° 0 mm 6 mps 737 mmHg 90%
    04:00 +4°C° 0 mm 6 mps 738 mmHg 91%
    05:00 +3°C° 0 mm 5 mps 739 mmHg 91%
    06:00 +3°C° 0 mm 6 mps 739 mmHg 90%
    07:00 +4°C° 0 mm 6 mps 740 mmHg 88%
    08:00 +4°C° 0 mm 6 mps 741 mmHg 86%
    09:00 +4°C° 0 mm 6 mps 742 mmHg 84%
    10:00 +5°C° 0 mm 6 mps 742 mmHg 81%
    11:00 +5°C° 0 mm 6 mps 743 mmHg 78%
    12:00 +7°C° 0.1 mm 6 mps 744 mmHg 73%
    13:00 +8°C° 0.1 mm 6 mps 744 mmHg 68%
    14:00 +8°C° 0.1 mm 6 mps 745 mmHg 63%
    15:00 +8°C° 0.1 mm 6 mps 745 mmHg 64%
    16:00 +7°C° 0.1 mm 5 mps 746 mmHg 66%
    17:00 +6°C° 0.1 mm 5 mps 747 mmHg 68%
    18:00 +5°C° 0 mm 4 mps 747 mmHg 69%
    19:00 +4°C° 0 mm 4 mps 748 mmHg 70%
    20:00 +3°C° 0 mm 4 mps 749 mmHg 72%
    21:00 +3°C° 0 mm 4 mps 749 mmHg 72%
    22:00 +3°C° 0 mm 4 mps 750 mmHg 72%
    23:00 +1°C° 0 mm 4 mps 751 mmHg 72%

    Day after tomorrow, 26 September, Wednesday

    Time Temperature Precipitation Wind Pressure Humidity
    00:00 +1°C° 0 mm 4 mps 751 mmHg 74%
    01:00 +1°C° 0 mm 3 mps 752 mmHg 76%
    02:00 +1°C° 0 mm 3 mps 752 mmHg 78%
    03:00 +1°C° 0 mm 3 mps 752 mmHg 80%
    04:00 0°C° 0 mm 3 mps 753 mmHg 83%
    05:00 0°C° 0 mm 3 mps 753 mmHg 86%
    06:00 +1°C° 0 mm 3 mps 753 mmHg 85%
    07:00 +2°C° 0 mm 3 mps 754 mmHg 84%
    08:00 +3°C° 0 mm 3 mps 754 mmHg 83%
    09:00 +5°C° 0 mm 3 mps 754 mmHg 76%
    10:00 +7°C° 0 mm 4 mps 753 mmHg 68%
    11:00 +10°C° 0 mm 4 mps 753 mmHg 60%
    12:00 +10°C° 0 mm 4 mps 753 mmHg 58%
    13:00 +10°C° 0 mm 5 mps 752 mmHg 55%
    14:00 +10°C° 0 mm 5 mps 751 mmHg 52%
    15:00 +9°C° 0 mm 5 mps 751 mmHg 57%
    16:00 +9°C° 0 mm 5 mps 750 mmHg 62%
    17:00 +8°C° 0 mm 5 mps 749 mmHg 68%
    18:00 +7°C° 0.6 mm 6 mps 749 mmHg 73%
    19:00 +5°C° 0.6 mm 6 mps 748 mmHg 79%
    20:00 +4°C° 0.6 mm 7 mps 747 mmHg 85%
    21:00 +4°C° 1.3 mm 7 mps 746 mmHg 87%
    22:00 +4°C° 1.3 mm 7 mps 745 mmHg 88%
    23:00 +4°C° 1.3 mm 8 mps 743 mmHg 90%

    27 September, Thursday

    Time Temperature Precipitation Wind Pressure Humidity
    00:00 +4°C° 1.3 mm 7 mps 743 mmHg 91%
    01:00 +5°C° 1.3 mm 7 mps 742 mmHg 91%
    02:00 +5°C° 1.3 mm 7 mps 742 mmHg 92%
    03:00 +5°C° 0.7 mm 6 mps 741 mmHg 92%
    04:00 +7°C° 0.7 mm 5 mps 741 mmHg 93%
    05:00 +7°C° 0.7 mm 5 mps 741 mmHg 94%
    06:00 +7°C° 0.2 mm 4 mps 741 mmHg 92%
    07:00 +7°C° 0.2 mm 4 mps 741 mmHg 91%
    08:00 +8°C° 0.2 mm 4 mps 741 mmHg 89%
    09:00 +10°C° 0 mm 4 mps 741 mmHg 83%
    10:00 +11°C° 0 mm 4 mps 741 mmHg 77%
    11:00 +12°C° 0 mm 5 mps 741 mmHg 71%
    12:00 +13°C° 0.2 mm 5 mps 741 mmHg 69%
    13:00 +13°C° 0.2 mm 5 mps 741 mmHg 67%
    14:00 +14°C° 0.2 mm 5 mps 741 mmHg 65%
    15:00 +13°C° 0.1 mm 5 mps 741 mmHg 68%
    16:00 +12°C° 0.1 mm 4 mps 741 mmHg 71%
    17:00 +11°C° 0.1 mm 3 mps 741 mmHg 73%
    18:00 +10°C° 0 mm 3 mps 742 mmHg 75%
    19:00 +9°C° 0 mm 3 mps 742 mmHg 76%
    20:00 +8°C° 0 mm 3 mps 743 mmHg 78%
    21:00 +8°C° 0 mm 3 mps 743 mmHg 79%
    22:00 +7°C° 0 mm 3 mps 743 mmHg 80%
    23:00 +7°C° 0 mm 3 mps 743 mmHg 80%

    28 September, Friday

    Time Temperature Precipitation Wind Pressure Humidity
    00:00 +6°C° 0 mm 2 mps 743 mmHg 83%
    01:00 +6°C° 0 mm 2 mps 743 mmHg 85%
    02:00 +5°C° 0 mm 2 mps 744 mmHg 88%
    03:00 +6°C° 0 mm 2 mps 743 mmHg 88%
    04:00 +6°C° 0 mm 2 mps 742 mmHg 87%
    05:00 +7°C° 0 mm 3 mps 741 mmHg 87%
    06:00 +7°C° 0.6 mm 4 mps 741 mmHg 88%
    07:00 +9°C° 0.6 mm 5 mps 740 mmHg 90%
    08:00 +10°C° 0.6 mm 6 mps 739 mmHg 92%
    09:00 +11°C° 0.2 mm 7 mps 738 mmHg 90%
    10:00 +12°C° 0.2 mm 7 mps 737 mmHg 88%
    11:00 +12°C° 0.2 mm 8 mps 737 mmHg 87%
    12:00 +12°C° 0.4 mm 8 mps 736 mmHg 85%
    13:00 +12°C° 0.4 mm 8 mps 736 mmHg 84%
    14:00 +12°C° 0.4 mm 8 mps 736 mmHg 82%
    15:00 +12°C° 0.4 mm 7 mps 736 mmHg 83%
    16:00 +11°C° 0.4 mm 7 mps 737 mmHg 84%
    17:00 +11°C° 0.4 mm 6 mps 737 mmHg 85%
    18:00 +10°C° 0.2 mm 6 mps 738 mmHg 87%
    19:00 +8°C° 0.2 mm 5 mps 738 mmHg 88%
    20:00 +7°C° 0.2 mm 4 mps 739 mmHg 90%
    21:00 +6°C° 0 mm 4 mps 740 mmHg 90%
    22:00 +5°C° 0 mm 4 mps 741 mmHg 91%
    23:00 +4°C° 0 mm 3 mps 742 mmHg 92%

    29 September, Saturday

    Time Temperature Precipitation Wind Pressure Humidity
    00:00 +3°C° 0 mm 3 mps 743 mmHg 93%
    01:00 +3°C° 0 mm 3 mps 743 mmHg 94%
    02:00 +4°C° 0 mm 2 mps 744 mmHg 95%
    03:00 +3°C° 0 mm 2 mps 745 mmHg 95%
    04:00 +3°C° 0 mm 2 mps 745 mmHg 95%
    05:00 +4°C° 0 mm 1 mps 746 mmHg 95%
    06:00 +4°C° 0 mm 1 mps 746 mmHg 92%
    07:00 +5°C° 0 mm 1 mps 746 mmHg 89%
    08:00 +6°C° 0 mm 1 mps 747 mmHg 85%
    09:00 +7°C° 0 mm 1 mps 748 mmHg 80%
    10:00 +8°C° 0 mm 1 mps 748 mmHg 74%
    11:00 +9°C° 0 mm 1 mps 749 mmHg 68%
    12:00 +8°C° 0.2 mm 2 mps 749 mmHg 67%
    13:00 +9°C° 0.2 mm 2 mps 749 mmHg 67%
    14:00 +9°C° 0.2 mm 2 mps 750 mmHg 67%
    15:00 +8°C° 0.2 mm 2 mps 750 mmHg 72%
    16:00 +7°C° 0.2 mm 3 mps 751 mmHg 77%
    17:00 +5°C° 0.2 mm 3 mps 751 mmHg 82%
    18:00 +4°C° 0 mm 3 mps 752 mmHg 84%
    19:00 +4°C° 0 mm 2 mps 753 mmHg 86%
    20:00 +2°C° 0 mm 2 mps 753 mmHg 87%
    21:00 +2°C° 0 mm 2 mps 754 mmHg 87%
    22:00 +1°C° 0 mm 2 mps 754 mmHg 87%
    23:00 +2°C° 0 mm 1 mps 755 mmHg 87%
    Show more